TimeCST,TemperatureF,Dew PointF,Humidity,Sea Level PressureIn,VisibilityMPH,Wind Direction,Wind SpeedMPH,Gust SpeedMPH,PrecipitationIn,Events,Conditions,WindDirDegrees,DateUTC
12:15 AM,16.3,5.0,61,30.19,10.0,South,10.4,-,N/A,,Overcast,180,2013-01-23 06:15:00
12:35 AM,16.7,5.7,62,30.19,10.0,South,6.9,-,N/A,,Overcast,190,2013-01-23 06:35:00
12:55 AM,17.2,6.1,62,30.17,10.0,SSW,8.1,-,N/A,,Overcast,200,2013-01-23 06:55:00
1:35 AM,15.8,4.8,62,30.16,10.0,SSW,9.2,-,N/A,,Mostly Cloudy,200,2013-01-23 07:35:00
1:55 AM,14.9,4.5,63,30.16,10.0,South,6.9,-,N/A,,Scattered Clouds,190,2013-01-23 07:55:00
2:15 AM,14.9,4.6,64,30.15,10.0,South,8.1,-,N/A,,Clear,190,2013-01-23 08:15:00
2:35 AM,14.4,4.6,65,30.15,10.0,South,6.9,-,N/A,,Clear,190,2013-01-23 08:35:00
2:55 AM,14.0,4.5,66,30.15,10.0,South,6.9,-,N/A,,Clear,190,2013-01-23 08:55:00
3:37 AM,14.0,5.0,67,30.14,10.0,South,8.1,-,N/A,,Clear,190,2013-01-23 09:37:00
3:55 AM,13.5,4.3,67,30.14,10.0,South,6.9,-,N/A,,Clear,190,2013-01-23 09:55:00
4:15 AM,14.0,4.8,67,30.12,10.0,South,5.8,-,N/A,,Clear,190,2013-01-23 10:15:00
4:16 AM,14.0,3.2,62,30.12,10.0,South,5.8,-,N/A,,Clear,190,2013-01-23 10:16:00
4:35 AM,12.6,3.6,67,30.12,10.0,South,4.6,-,N/A,,Clear,190,2013-01-23 10:35:00
4:55 AM,12.9,4.1,68,30.13,10.0,Calm,Calm,-,N/A,,Clear,0,2013-01-23 10:55:00
5:15 AM,11.7,3.0,68,30.13,10.0,Calm,Calm,-,N/A,,Clear,0,2013-01-23 11:15:00
5:35 AM,12.0,4.1,71,30.13,10.0,Calm,Calm,-,N/A,,Clear,0,2013-01-23 11:35:00
5:55 AM,12.9,4.8,70,30.14,10.0,Calm,Calm,-,N/A,,Clear,0,2013-01-23 11:55:00
6:15 AM,13.1,4.8,70,30.15,10.0,Calm,Calm,-,N/A,,Clear,0,2013-01-23 12:15:00
6:35 AM,12.6,4.8,71,30.15,10.0,SW,3.5,-,N/A,,Clear,230,2013-01-23 12:35:00
6:55 AM,12.4,5.0,72,30.15,10.0,Calm,Calm,-,N/A,,Clear,0,2013-01-23 12:55:00
7:15 AM,13.1,5.5,72,30.16,10.0,Calm,Calm,-,N/A,,Clear,0,2013-01-23 13:15:00
7:35 AM,13.1,5.7,72,30.16,10.0,Calm,Calm,-,N/A,,Clear,0,2013-01-23 13:35:00
7:55 AM,14.0,6.4,72,30.16,10.0,Calm,Calm,-,N/A,,Clear,0,2013-01-23 13:55:00
8:15 AM,15.8,7.7,70,30.17,10.0,North,9.2,-,N/A,,Clear,350,2013-01-23 14:15:00
8:35 AM,15.8,7.7,70,30.17,10.0,North,6.9,-,N/A,,Clear,360,2013-01-23 14:35:00
8:55 AM,15.6,7.3,70,30.18,10.0,North,10.4,-,N/A,,Clear,360,2013-01-23 14:55:00
9:15 AM,16.7,7.9,68,30.19,10.0,North,9.2,-,N/A,,Clear,350,2013-01-23 15:15:00
9:35 AM,18.5,8.8,66,30.20,10.0,North,8.1,-,N/A,,Clear,350,2013-01-23 15:35:00
9:55 AM,19.2,9.3,65,30.21,10.0,North,8.1,-,N/A,,Clear,360,2013-01-23 15:55:00
10:15 AM,20.3,9.7,64,30.22,10.0,NNW,10.4,-,N/A,,Clear,340,2013-01-23 16:15:00
10:35 AM,21.0,10.2,63,30.24,10.0,NW,11.5,17.3,N/A,,Clear,320,2013-01-23 16:35:00
10:55 AM,21.7,10.4,62,30.25,10.0,NNW,13.8,-,N/A,,Clear,330,2013-01-23 16:55:00
11:15 AM,22.1,10.4,61,30.26,10.0,NNW,11.5,-,N/A,,Clear,340,2013-01-23 17:15:00
11:35 AM,22.3,10.9,62,30.26,10.0,NNW,10.4,-,N/A,,Clear,330,2013-01-23 17:35:00
11:55 AM,23.0,11.1,60,30.26,10.0,NNW,12.7,16.1,N/A,,Clear,330,2013-01-23 17:55:00
12:15 PM,23.7,11.5,60,30.27,10.0,NNW,13.8,18.4,N/A,,Clear,340,2013-01-23 18:15:00
12:35 PM,23.9,11.8,60,30.26,10.0,NNW,9.2,16.1,N/A,,Scattered Clouds,330,2013-01-23 18:35:00
12:55 PM,24.6,11.5,57,30.26,10.0,NW,12.7,-,N/A,,Scattered Clouds,310,2013-01-23 18:55:00
1:15 PM,24.4,11.7,58,30.27,10.0,NW,10.4,17.3,N/A,,Scattered Clouds,310,2013-01-23 19:15:00
1:35 PM,24.4,11.5,58,30.27,7.0,NNW,16.1,23.0,N/A,Snow,Light Snow,330,2013-01-23 19:35:00
1:55 PM,24.8,10.2,54,30.27,10.0,NNW,17.3,21.9,N/A,,Mostly Cloudy,340,2013-01-23 19:55:00
2:15 PM,24.6,9.7,53,30.27,10.0,NW,18.4,21.9,N/A,,Overcast,320,2013-01-23 20:15:00
2:35 PM,23.7,8.2,52,30.29,10.0,NNW,17.3,23.0,N/A,,Scattered Clouds,340,2013-01-23 20:35:00
2:55 PM,23.5,8.4,53,30.29,10.0,NNW,13.8,18.4,N/A,,Clear,340,2013-01-23 20:55:00
3:15 PM,23.4,7.2,50,30.30,10.0,North,15.0,23.0,N/A,,Clear,350,2013-01-23 21:15:00
3:35 PM,22.5,6.3,50,30.30,10.0,NNW,19.6,23.0,N/A,,Scattered Clouds,340,2013-01-23 21:35:00
3:55 PM,21.7,4.1,47,30.32,10.0,North,12.7,24.2,N/A,,Clear,350,2013-01-23 21:55:00
4:15 PM,20.8,4.5,49,30.33,10.0,North,15.0,23.0,N/A,,Clear,350,2013-01-23 22:15:00
4:35 PM,20.3,3.7,49,30.37,10.0,NNW,13.8,20.7,N/A,,Clear,340,2013-01-23 22:35:00
4:55 PM,19.4,3.4,50,30.37,10.0,NNW,17.3,-,N/A,,Scattered Clouds,340,2013-01-23 22:55:00
5:15 PM,17.4,0.1,47,30.38,10.0,North,13.8,20.7,N/A,,Clear,350,2013-01-23 23:15:00
5:35 PM,15.8,-0.2,49,30.39,10.0,North,16.1,24.2,N/A,,Clear,360,2013-01-23 23:35:00
5:55 PM,14.2,-0.9,51,30.41,10.0,North,13.8,-,N/A,,Clear,10,2013-01-23 23:55:00
6:15 PM,13.1,-1.7,52,30.42,10.0,North,16.1,24.2,N/A,,Clear,360,2013-01-24 00:15:00
6:35 PM,12.0,-2.0,53,30.43,10.0,North,11.5,18.4,N/A,,Clear,10,2013-01-24 00:35:00
6:55 PM,10.9,-3.1,53,30.43,10.0,North,17.3,20.7,N/A,,Clear,10,2013-01-24 00:55:00
7:15 PM,9.9,-4.0,54,30.45,10.0,North,15.0,-,N/A,,Clear,360,2013-01-24 01:15:00
7:35 PM,9.0,-5.1,53,30.45,10.0,North,16.1,24.2,N/A,,Clear,360,2013-01-24 01:35:00
7:55 PM,7.5,-8.3,49,30.46,10.0,North,13.8,24.2,N/A,,Clear,360,2013-01-24 01:55:00
8:15 PM,6.8,-7.6,52,30.47,10.0,North,16.1,21.9,N/A,,Clear,360,2013-01-24 02:15:00
8:35 PM,6.4,-9.6,48,30.49,10.0,North,10.4,23.0,N/A,,Clear,350,2013-01-24 02:35:00
8:55 PM,5.7,-11.4,45,30.48,10.0,North,17.3,24.2,N/A,,Clear,10,2013-01-24 02:55:00
9:15 PM,5.4,-10.3,49,30.47,10.0,North,11.5,-,N/A,,Clear,10,2013-01-24 03:15:00
9:35 PM,5.0,-11.2,47,30.48,10.0,North,13.8,18.4,N/A,,Clear,350,2013-01-24 03:35:00
9:55 PM,4.5,-13.9,43,30.48,10.0,North,13.8,20.7,N/A,,Clear,10,2013-01-24 03:55:00
10:15 PM,4.1,-14.8,41,30.49,10.0,North,12.7,-,N/A,,Clear,10,2013-01-24 04:15:00
10:35 PM,3.6,-14.4,43,30.51,10.0,North,15.0,-,N/A,,Clear,10,2013-01-24 04:35:00
10:55 PM,3.0,-13.5,46,30.53,10.0,North,10.4,-,N/A,,Clear,10,2013-01-24 04:55:00
11:15 PM,2.8,-13.2,47,30.53,10.0,North,11.5,-,N/A,,Clear,10,2013-01-24 05:15:00
11:35 PM,2.3,-14.3,46,30.54,10.0,North,11.5,17.3,N/A,,Clear,10,2013-01-24 05:35:00
11:55 PM,1.9,-14.1,47,30.54,10.0,NNE,8.1,-,N/A,,Clear,20,2013-01-24 05:55:00